• In Hungary
  • List of Countries
  • For 7 days
  • Water Temperature
  • Satellite Maps
  • Weather Map
  • News
  • Weather Widgets
  • user-avatar
    Login

    Hourly Weather Pruniers

    Today, 11 December, Monday

    Time Temperature Precipitation Wind Pressure Humidity
    00:00 +7°C° 0 mm 4 mps 721 mmHg 91%
    01:00 +8°C° 1 mm 5 mps 720 mmHg 90%
    02:00 +8°C° 1 mm 5 mps 719 mmHg 89%
    03:00 +9°C° 1 mm 5 mps 717 mmHg 87%
    04:00 +9°C° 0.5 mm 6 mps 717 mmHg 86%
    05:00 +9°C° 0.5 mm 7 mps 717 mmHg 86%
    06:00 +9°C° 0.5 mm 8 mps 717 mmHg 85%
    07:00 +9°C° 0.2 mm 8 mps 717 mmHg 81%
    08:00 +7°C° 0.2 mm 9 mps 717 mmHg 78%
    09:00 +7°C° 0.2 mm 9 mps 718 mmHg 75%
    10:00 +7°C° 0 mm 10 mps 718 mmHg 73%
    11:00 +7°C° 0 mm 11 mps 718 mmHg 71%
    12:00 +7°C° 0 mm 11 mps 719 mmHg 69%
    13:00 +7°C° 0 mm 11 mps 720 mmHg 70%
    14:00 +7°C° 0 mm 11 mps 720 mmHg 71%
    15:00 +6°C° 0 mm 10 mps 721 mmHg 72%
    16:00 +6°C° 0 mm 9 mps 723 mmHg 73%
    17:00 +5°C° 0 mm 8 mps 724 mmHg 75%
    18:00 +4°C° 0 mm 7 mps 726 mmHg 76%
    19:00 +4°C° 0.1 mm 7 mps 728 mmHg 77%
    20:00 +3°C° 0.1 mm 6 mps 730 mmHg 78%
    21:00 +3°C° 0.1 mm 5 mps 731 mmHg 79%
    22:00 +3°C° 0 mm 4 mps 733 mmHg 82%
    23:00 +3°C° 0 mm 4 mps 734 mmHg 84%

    Tomorrow, 12 December, Tuesday

    Time Temperature Precipitation Wind Pressure Humidity
    00:00 +2°C° 0 mm 3 mps 736 mmHg 86%
    01:00 +2°C° 0 mm 3 mps 737 mmHg 87%
    02:00 +2°C° 0 mm 3 mps 738 mmHg 88%
    03:00 +2°C° 0 mm 3 mps 739 mmHg 89%
    04:00 +1°C° 0 mm 3 mps 740 mmHg 90%
    05:00 +1°C° 0 mm 3 mps 741 mmHg 92%
    06:00 +1°C° 0 mm 2 mps 742 mmHg 93%
    07:00 +1°C° 0 mm 2 mps 743 mmHg 90%
    08:00 +1°C° 0 mm 3 mps 744 mmHg 87%
    09:00 +1°C° 0 mm 3 mps 745 mmHg 84%
    10:00 +2°C° 0 mm 3 mps 745 mmHg 77%
    11:00 +4°C° 0 mm 3 mps 746 mmHg 71%
    12:00 +5°C° 0 mm 4 mps 747 mmHg 64%
    13:00 +5°C° 0 mm 3 mps 747 mmHg 65%
    14:00 +5°C° 0 mm 3 mps 747 mmHg 66%
    15:00 +5°C° 0 mm 3 mps 747 mmHg 67%
    16:00 +4°C° 0 mm 3 mps 748 mmHg 72%
    17:00 +3°C° 0 mm 3 mps 748 mmHg 76%
    18:00 +2°C° 0 mm 3 mps 749 mmHg 80%
    19:00 +2°C° 0 mm 3 mps 749 mmHg 82%
    20:00 +2°C° 0 mm 3 mps 749 mmHg 84%
    21:00 +1°C° 0 mm 4 mps 750 mmHg 85%
    22:00 +1°C° 0 mm 4 mps 750 mmHg 86%
    23:00 +1°C° 0 mm 4 mps 749 mmHg 87%

    Day after tomorrow, 13 December, Wednesday

    Time Temperature Precipitation Wind Pressure Humidity
    00:00 +1°C° 0 mm 4 mps 749 mmHg 88%
    01:00 +1°C° 0 mm 4 mps 749 mmHg 88%
    02:00 +1°C° 0 mm 5 mps 749 mmHg 87%
    03:00 +1°C° 0 mm 5 mps 749 mmHg 87%
    04:00 +2°C° 0.1 mm 5 mps 748 mmHg 85%
    05:00 +2°C° 0.1 mm 6 mps 747 mmHg 84%
    06:00 +3°C° 0.1 mm 6 mps 747 mmHg 82%
    07:00 +4°C° 0.7 mm 7 mps 746 mmHg 83%
    08:00 +4°C° 0.7 mm 7 mps 746 mmHg 84%
    09:00 +5°C° 0.7 mm 7 mps 746 mmHg 85%
    10:00 +5°C° 0.1 mm 8 mps 746 mmHg 85%
    11:00 +5°C° 0.1 mm 8 mps 746 mmHg 84%
    12:00 +5°C° 0.1 mm 8 mps 745 mmHg 83%
    13:00 +6°C° 0.1 mm 7 mps 745 mmHg 84%
    14:00 +6°C° 0.1 mm 7 mps 744 mmHg 84%
    15:00 +7°C° 0.1 mm 6 mps 743 mmHg 85%
    16:00 +7°C° 0.7 mm 6 mps 743 mmHg 86%
    17:00 +6°C° 0.7 mm 7 mps 742 mmHg 87%
    18:00 +8°C° 0.7 mm 7 mps 742 mmHg 89%
    19:00 +8°C° 0.4 mm 7 mps 742 mmHg 89%
    20:00 +9°C° 0.4 mm 7 mps 741 mmHg 89%
    21:00 +10°C° 0.4 mm 8 mps 741 mmHg 89%
    22:00 +10°C° 0.2 mm 7 mps 741 mmHg 88%
    23:00 +9°C° 0.2 mm 6 mps 742 mmHg 88%

    14 December, Thursday

    Time Temperature Precipitation Wind Pressure Humidity
    00:00 +9°C° 0.2 mm 5 mps 742 mmHg 88%
    01:00 +8°C° 0 mm 5 mps 742 mmHg 89%
    02:00 +8°C° 0 mm 5 mps 742 mmHg 90%
    03:00 +7°C° 0 mm 4 mps 742 mmHg 90%
    04:00 +7°C° 0.1 mm 5 mps 742 mmHg 90%
    05:00 +7°C° 0.1 mm 5 mps 741 mmHg 89%
    06:00 +7°C° 0.1 mm 5 mps 741 mmHg 88%
    07:00 +8°C° 0.1 mm 6 mps 741 mmHg 87%
    08:00 +8°C° 0.1 mm 6 mps 740 mmHg 85%
    09:00 +8°C° 0.1 mm 7 mps 740 mmHg 84%
    10:00 +9°C° 0.4 mm 8 mps 740 mmHg 81%
    11:00 +8°C° 0.4 mm 9 mps 739 mmHg 78%
    12:00 +10°C° 0.4 mm 9 mps 739 mmHg 75%
    13:00 +8°C° 0.6 mm 9 mps 739 mmHg 76%
    14:00 +9°C° 0.6 mm 8 mps 739 mmHg 78%
    15:00 +8°C° 0.6 mm 7 mps 738 mmHg 80%
    16:00 +8°C° 0.4 mm 7 mps 739 mmHg 81%
    17:00 +7°C° 0.4 mm 6 mps 739 mmHg 82%
    18:00 +7°C° 0.4 mm 5 mps 739 mmHg 83%
    19:00 +7°C° 0.3 mm 5 mps 739 mmHg 84%
    20:00 +6°C° 0.3 mm 5 mps 739 mmHg 85%
    21:00 +6°C° 0.3 mm 5 mps 738 mmHg 85%
    22:00 +6°C° 0.5 mm 4 mps 738 mmHg 86%
    23:00 +6°C° 0.5 mm 4 mps 738 mmHg 87%

    15 December, Friday

    Time Temperature Precipitation Wind Pressure Humidity
    00:00 +6°C° 0.5 mm 4 mps 737 mmHg 87%
    01:00 +5°C° 0.5 mm 4 mps 737 mmHg 88%
    02:00 +5°C° 0.5 mm 4 mps 737 mmHg 88%
    03:00 +5°C° 0.5 mm 4 mps 736 mmHg 89%
    04:00 +4°C° 0.2 mm 4 mps 736 mmHg 89%
    05:00 +4°C° 0.2 mm 4 mps 736 mmHg 89%
    06:00 +4°C° 0.2 mm 3 mps 736 mmHg 89%
    07:00 +4°C° 0 mm 4 mps 736 mmHg 87%
    08:00 +4°C° 0 mm 4 mps 736 mmHg 85%
    09:00 +3°C° 0 mm 5 mps 736 mmHg 83%
    10:00 +5°C° 0.1 mm 5 mps 736 mmHg 80%
    11:00 +4°C° 0.1 mm 6 mps 736 mmHg 77%
    12:00 +5°C° 0.1 mm 7 mps 736 mmHg 74%
    13:00 +5°C° 0.2 mm 7 mps 737 mmHg 74%
    14:00 +4°C° 0.2 mm 6 mps 737 mmHg 74%
    15:00 +4°C° 0.2 mm 6 mps 738 mmHg 74%
    16:00 +3°C° 0 mm 5 mps 738 mmHg 77%
    17:00 +2°C° 0 mm 5 mps 739 mmHg 79%
    18:00 +1°C° 0 mm 4 mps 740 mmHg 81%
    19:00 +1°C° 0 mm 4 mps 740 mmHg 83%
    20:00 +1°C° 0 mm 4 mps 741 mmHg 85%
    21:00 +1°C° 0 mm 4 mps 742 mmHg 87%
    22:00 0°C° 0 mm 4 mps 742 mmHg 89%
    23:00 0°C° 0 mm 4 mps 743 mmHg 91%

    16 December, Saturday

    Time Temperature Precipitation Wind Pressure Humidity
    00:00 +1°C° 0 mm 3 mps 743 mmHg 93%
    01:00 +1°C° 0 mm 3 mps 743 mmHg 94%
    02:00 0°C° 0 mm 3 mps 744 mmHg 95%
    03:00 +1°C° 0 mm 2 mps 744 mmHg 96%
    04:00 +1°C° 0 mm 2 mps 745 mmHg 96%
    05:00 -1°C° 0 mm 2 mps 745 mmHg 96%
    06:00 -1°C° 0 mm 2 mps 746 mmHg 96%
    07:00 +1°C° 0 mm 2 mps 746 mmHg 94%
    08:00 0°C° 0 mm 3 mps 747 mmHg 93%
    09:00 +1°C° 0 mm 3 mps 747 mmHg 91%
    10:00 +2°C° 0 mm 3 mps 748 mmHg 87%
    11:00 +3°C° 0 mm 3 mps 748 mmHg 83%
    12:00 +4°C° 0 mm 3 mps 748 mmHg 79%
    13:00 +4°C° 0 mm 3 mps 748 mmHg 79%
    14:00 +4°C° 0 mm 3 mps 748 mmHg 79%
    15:00 +4°C° 0 mm 3 mps 748 mmHg 79%
    16:00 +3°C° 0 mm 3 mps 749 mmHg 84%
    17:00 +2°C° 0 mm 3 mps 749 mmHg 88%
    18:00 +1°C° 0 mm 3 mps 749 mmHg 92%
    19:00 +1°C° 0 mm 3 mps 750 mmHg 92%
    20:00 +1°C° 0 mm 3 mps 750 mmHg 92%
    21:00 +1°C° 0 mm 3 mps 750 mmHg 92%
    22:00 +1°C° 0.1 mm 3 mps 750 mmHg 92%
    23:00 +2°C° 0.1 mm 3 mps 750 mmHg 91%
    Show more